Wetbulb
58.36 58.40 57.99 57.35 56.92 56.99 57.09 56.78 55.91 56.13 56.73 57.25 57.25 57.25 57.32 57.11 56.74 56.64 56.68 56.79 56.56 56.44 56.69 56.88 56.59 56.53 56.46 56.46 56.03 55.67 55.60 55.74 55.75 54.96 54.33 54.75 55.39 55.60 55.53 55.60 55.32 55.39 55.68 55.89 56.25 56.24 56.10 55.82 55.39 54.89 54.46 54.26 54.61 54.89 55.24 55.25 55.39 55.18 54.89 54.75 54.54 54.61 54.89 54.96 54.82 54.96 55.03 54.79 54.32
58.39 58.21 57.38 55.80 55.48 56.44 57.19 56.71 56.39 56.54 56.93 57.61 57.54 57.61 57.68 57.47 57.03 56.95 56.94 57.15 57.20 57.28 57.44 57.38 57.11 57.04 56.96 56.66 56.23 55.94 55.80 55.87 55.95 55.67 55.25 55.25 55.60 55.67 55.67 55.74 55.68 55.53 55.60 55.96 56.32 56.24 55.96 55.81 55.32 54.68 54.18 54.04 54.26 54.47 54.74 55.09 55.29 55.09 54.75 54.61 54.40 54.54 54.61 54.54 54.75 55.03 55.17 54.95 54.70
58.21 57.94 57.69 57.48 57.40 57.33 57.27 56.93 57.06 57.16 57.46 57.54 57.68 57.75 57.82 57.68 57.39 57.25 57.17 57.46 57.75 57.75 57.75 57.61 57.39 57.32 57.32 57.24 56.87 56.51 56.22 56.22 56.30 56.17 56.03 55.82 55.89 55.82 55.89 55.96 56.10 55.75 55.53 55.96 56.31 56.31 55.95 55.80 54.88 54.04 53.41 53.61 53.84 53.91 54.19 54.75 54.82 54.67 54.46 54.47 54.33 54.26 54.19 53.98 54.53 54.81 54.96 54.68 54.66
58.17 57.98 57.83 57.69 57.62 57.55 57.34 57.06 57.13 57.23 57.39 57.39 57.54 57.61 57.75 57.83 57.76 57.61 57.61 57.83 57.83 57.83 57.83 57.83 57.81 57.75 57.68 57.54 57.24 56.93 56.42 55.36 56.08 56.30 56.38 56.10 56.10 56.18 56.25 56.46 56.46 56.32 56.25 56.31 56.38 56.37 56.14 55.78 54.87 54.04 53.62 53.83 53.76 53.76 53.83 54.25 54.40 54.33 54.25 54.39 54.26 54.12 53.98 53.76 54.18 54.46 54.39 54.33 54.47
58.18 58.11 58.04 57.87 57.72 57.81 57.70 57.65 57.35 57.36 57.45 57.54 57.25 57.32 57.54 57.75 57.75 57.83 57.76 57.40 57.54 57.83 58.34 58.77 58.67 58.45 58.11 57.90 57.66 57.21 56.76 56.19 54.61 55.34 56.51 56.52 56.45 56.53 56.60 56.60 56.60 56.46 56.31 56.38 56.29 56.36 56.19 55.75 54.80 54.25 53.98 53.98 53.55 53.69 53.90 54.45 54.46 54.33 54.25 54.18 54.11 53.97 53.84 53.77 53.83 53.97 54.05 53.84 53.90
58.24 58.26 58.33 58.17 58.13 58.22 58.12 58.09 57.92 57.79 57.66 57.54 57.18 57.11 57.32 57.54 57.76 57.75 57.68 57.61 58.12 58.70 58.92 58.26 58.11 57.81 57.89 58.48 58.02 57.62 57.25 57.08 56.03 56.27 56.66 56.68 56.81 56.95 56.95 56.66 56.60 56.46 56.39 56.30 56.26 56.23 56.02 55.48 54.51 54.04 53.97 53.91 53.83 53.97 54.24 54.66 54.31 54.19 53.97 53.82 53.76 53.76 53.76 53.62 53.55 53.62 53.69 53.61 53.54
58.44 58.44 58.37 58.44 58.33 58.33 58.35 58.45 58.23 58.09 57.96 57.75 57.46 57.38 57.32 57.54 57.83 58.05 58.34 58.62 58.91 58.92 58.40 57.25 57.76 57.97 58.33 58.63 58.10 57.77 57.45 57.29 57.16 57.06 57.08 56.96 57.16 57.10 56.82 56.66 56.45 56.38 56.30 56.23 55.99 55.93 55.65 55.30 54.35 53.53 52.90 52.40 53.13 53.91 54.40 54.54 54.26 53.97 53.75 53.46 53.54 53.60 53.66 53.72 53.80 53.66 53.52 53.43 53.00
58.98 58.76 58.69 58.69 58.76 58.61 58.61 58.69 58.54 58.31 58.09 57.82 57.67 57.81 57.88 57.97 58.19 58.55 58.92 59.14 59.13 58.84 58.41 58.04 58.84 59.13 59.05 58.69 58.26 57.90 57.66 57.59 57.35 57.34 57.34 57.27 57.43 57.24 57.03 56.82 56.45 56.30 56.23 56.24 56.00 55.81 55.47 55.02 54.31 53.86 53.60 53.25 53.20 53.55 54.11 54.58 54.44 54.15 53.79 53.44 53.38 53.49 53.69 53.88 54.15 53.93 53.34 52.96 52.46
59.35 59.28 59.35 59.35 59.20 59.06 59.06 58.99 58.91 58.61 58.30 58.02 58.11 58.31 58.57 58.66 58.55 58.77 58.92 59.06 58.84 58.84 58.90 58.83 59.12 59.35 59.42 59.13 58.62 58.26 57.90 57.68 57.61 57.52 57.56 57.55 57.35 57.23 57.17 56.96 56.59 56.23 56.15 56.29 56.13 55.89 55.48 54.80 54.21 54.04 53.86 53.68 53.41 53.62 54.16 54.58 54.36 54.14 53.92 53.53 53.34 53.48 53.59 53.79 53.99 53.70 53.12 52.36 51.95
59.43 59.57 59.57 59.57 59.56 59.42 59.21 59.28 59.21 58.90 58.74 58.45 58.66 58.71 58.29 56.81 57.92 58.76 59.21 58.99 58.99 59.20 59.49 59.40 59.42 59.35 59.35 59.28 58.92 58.55 58.33 58.04 57.97 57.83 57.61 57.38 57.03 57.03 57.18 56.96 56.67 56.38 56.22 56.29 56.19 55.97 55.44 54.69 54.31 54.11 54.14 54.17 54.14 54.20 54.36 54.55 54.21 53.96 53.62 53.30 53.15 53.33 53.43 53.47 53.45 53.11 52.48 51.57 51.45
59.65 59.72 59.72 59.57 59.71 59.43 59.06 59.35 58.99 58.84 58.69 58.69 58.76 58.90 58.65 57.53 58.50 59.12 59.35 59.42 59.64 59.79 59.86 59.77 59.56 59.42 59.20 59.21 59.06 58.84 58.62 58.54 58.40 58.17 57.89 57.68 57.18 57.18 57.40 57.25 56.96 56.67 56.38 56.31 56.27 55.96 55.29 54.68 54.24 54.10 54.03 54.27 54.50 54.49 54.39 54.35 53.99 53.62 53.31 53.18 53.30 53.21 53.23 53.20 52.92 52.46 51.91 51.17 51.20
59.79 59.94 59.86 59.93 60.01 59.72 59.43 59.43 59.14 58.92 58.92 58.84 58.84 58.99 59.21 59.50 59.64 59.50 59.43 59.94 60.01 60.01 60.07 60.14 59.85 59.48 59.34 59.27 59.34 58.98 58.76 58.88 58.73 58.52 58.23 58.01 57.88 57.67 57.54 57.47 57.18 56.89 56.68 56.39 56.30 55.90 55.22 54.64 54.35 54.05 54.03 54.18 54.37 54.35 54.27 54.14 53.77 53.30 52.97 52.96 53.01 53.03 52.98 52.96 52.47 51.90 51.39 51.12 51.08
60.01 60.01 60.07 60.14 60.22 60.08 59.79 59.57 59.50 59.35 59.27 59.20 59.26 59.25 59.40 59.71 59.64 59.57 59.64 60.08 60.01 60.08 60.20 60.20 59.92 59.70 59.55 59.46 59.47 59.48 59.33 59.17 59.01 58.71 58.43 58.29 58.15 58.02 57.75 57.61 57.32 57.11 56.89 56.60 56.45 56.01 55.42 54.83 54.47 54.05 53.83 53.88 54.12 54.32 54.39 54.12 53.46 52.85 52.52 52.46 52.53 52.68 52.74 52.78 52.20 51.67 51.26 50.97 50.87
60.23 60.23 60.22 60.37 60.37 60.15 60.01 59.87 59.72 59.71 59.63 59.70 59.68 59.74 59.81 60.05 59.62 59.48 59.63 60.07 60.14 60.28 60.34 60.26 59.77 59.55 59.54 59.73 59.73 59.66 59.52 59.45 59.21 59.07 58.79 58.51 58.52 58.31 58.09 57.81 57.61 57.32 57.11 56.82 56.66 56.30 55.73 55.07 54.71 54.27 53.97 53.80 53.92 54.30 54.36 54.17 53.44 52.87 52.48 52.19 52.18 52.41 52.57 52.60 52.04 51.45 50.91 50.63 50.24
60.38 60.30 60.45 60.45 60.37 60.38 60.16 60.16 60.01 60.08 60.15 60.14 60.12 60.17 60.24 60.23 59.60 59.40 59.56 60.28 60.26 60.48 60.55 60.46 59.95 59.67 59.60 59.94 59.78 59.78 59.63 59.42 59.29 59.15 58.94 58.64 58.65 58.52 58.31 58.02 57.81 57.61 57.32 56.96 56.87 56.44 56.00 55.50 55.05 54.73 54.28 53.92 53.86 54.02 54.12 54.02 53.62 53.20 52.70 52.46 52.33 52.38 52.36 52.28 51.69 50.97 50.29 49.94 49.69
60.53 60.52 60.60 60.60 60.52 60.53 60.45 60.45 60.44 60.52 60.59 60.58 60.78 60.77 60.60 60.49 60.30 59.91 59.71 60.22 60.34 60.47 60.53 60.51 60.34 60.35 60.24 59.46 59.67 59.72 59.63 59.43 59.15 59.08 58.86 58.85 58.71 58.57 58.44 58.15 58.02 57.82 57.61 57.25 56.94 56.63 56.31 56.02 55.66 55.17 54.56 54.21 53.90 53.91 53.99 54.01 53.82 53.49 53.02 52.66 52.43 52.19 51.91 51.44 51.07 50.45 49.87 49.43 49.10
60.67 60.81 60.81 60.81 60.74 60.75 60.75 60.82 60.88 60.95 61.02 61.07 61.13 61.20 61.12 60.95 60.97 60.28 59.57 59.64 60.20 60.39 60.43 60.48 60.46 60.62 60.29 59.62 59.48 59.54 59.52 59.21 59.07 58.85 58.70 58.68 58.76 58.63 58.50 58.37 58.10 58.12 57.90 57.46 57.08 56.78 56.54 56.40 56.03 55.44 54.82 54.32 53.97 54.00 54.03 54.14 53.98 53.45 52.96 52.38 52.01 51.79 51.42 50.69 50.55 50.16 49.59 49.24 48.69
60.89 60.96 61.10 61.03 60.89 60.96 61.04 61.19 61.25 61.39 61.36 61.41 61.56 61.56 61.56 61.50 61.36 60.86 60.22 59.86 60.36 60.49 60.45 60.50 60.62 60.64 60.59 60.48 60.06 59.48 59.11 59.08 58.84 58.69 58.60 58.51 58.66 58.69 58.65 58.53 58.33 58.26 58.11 57.67 57.21 56.70 56.41 56.19 55.87 55.39 54.99 54.41 54.01 53.91 53.97 54.01 53.77 53.23 52.49 51.88 51.52 51.36 51.23 50.89 50.76 50.27 49.77 49.19 48.71
61.03 61.17 61.17 61.17 61.18 61.11 61.04 60.97 61.25 61.39 61.59 61.72 61.77 61.76 61.84 61.80 61.58 61.52 61.24 60.95 60.60 60.52 60.65 60.62 60.67 60.74 60.75 60.53 60.41 59.41 58.47 58.88 58.78 58.68 58.60 58.60 58.61 58.62 58.64 58.58 58.47 58.34 58.04 57.60 57.14 56.69 56.24 56.02 55.90 55.53 54.99 54.19 53.73 53.68 53.58 53.74 53.32 53.00 52.46 51.78 51.45 51.36 51.55 51.46 51.05 50.58 50.21 49.73 49.51
61.09 61.08 61.15 61.31 61.47 61.40 61.33 61.11 61.32 61.61 61.74 61.80 61.84 61.82 61.82 61.92 61.80 61.66 61.45 61.29 60.89 60.89 60.96 60.72 60.62 60.61 60.68 60.60 60.39 59.68 59.04 58.75 58.81 58.57 58.56 58.56 58.48 58.40 58.40 58.42 58.32 58.19 57.97 57.60 57.06 56.59 56.26 55.79 55.70 55.28 54.82 54.10 53.52 53.27 53.28 53.58 53.34 53.04 52.57 52.31 51.95 51.87 51.81 51.49 51.05 50.62 50.36 50.15 50.22
61.31 61.30 61.36 61.60 61.60 61.69 61.62 61.62 61.69 61.75 61.82 61.80 61.71 61.84 61.75 61.82 61.77 61.72 61.59 61.44 61.48 61.33 60.96 60.74 60.56 60.47 60.38 60.39 60.24 59.95 59.54 58.69 58.84 58.69 58.39 58.32 58.24 58.15 58.14 58.17 58.11 57.97 57.61 57.38 56.92 56.51 56.14 55.68 55.42 55.11 54.70 53.97 53.42 53.34 53.27 53.07 52.79 52.53 52.09 51.42 51.21 51.16 51.05 50.69 50.46 50.19 50.09 50.11 50.49
61.45 61.60 61.74 61.82 61.82 61.75 61.84 61.84 61.91 61.91 61.75 61.66 61.72 61.70 61.67 61.72 61.65 61.84 61.80 61.75 61.70 61.48 61.11 60.82 60.67 60.43 60.32 60.25 60.11 59.98 59.79 59.06 59.06 58.77 58.48 58.33 58.19 58.05 58.04 57.97 57.90 57.68 57.40 57.10 56.78 56.48 56.12 55.74 55.36 55.01 54.47 53.60 53.58 53.73 53.48 52.79 51.99 51.30 50.76 50.16 50.10 50.15 50.16 49.81 49.89 50.07 50.28 50.57 51.15
61.54 61.68 61.82 61.90 61.91 61.41 61.12 61.63 61.92 61.85 61.62 61.53 61.59 61.56 61.52 61.40 61.56 61.75 61.88 61.98 61.40 61.18 61.11 61.11 60.96 60.75 60.51 60.43 60.37 60.23 59.94 59.71 59.48 59.17 58.87 58.72 58.39 58.19 58.05 58.12 57.76 57.32 56.89 56.73 56.77 56.70 56.34 55.46 54.91 54.84 54.63 53.95 53.83 53.52 52.94 52.22 51.16 50.44 49.80 49.17 49.30 49.48 49.71 49.61 49.88 50.24 50.78 51.19 51.68
61.70 61.77 61.84 61.84 61.93 61.86 61.78 61.85 61.85 61.78 61.56 61.48 61.47 61.36 61.31 61.27 61.42 61.52 61.62 61.58 61.30 61.24 61.17 61.04 60.97 60.96 60.88 60.74 60.67 60.30 60.08 59.85 59.54 59.29 59.11 59.01 58.63 58.37 58.10 58.03 57.53 57.09 56.96 57.12 57.00 56.14 55.30 54.63 54.82 54.92 54.76 54.27 53.39 52.72 51.99 51.18 50.39 49.82 49.38 48.94 48.86 49.09 49.45 49.70 50.07 50.43 50.79 51.25 51.63
61.63 61.56 61.56 61.78 62.04 62.08 62.11 62.15 62.06 61.87 61.70 61.54 61.56 61.48 61.29 61.16 61.14 61.14 61.16 61.11 61.06 61.09 60.95 61.03 60.97 61.24 61.25 60.93 60.70 60.43 60.21 59.99 59.67 59.47 59.26 59.09 58.74 58.54 58.20 57.75 57.25 57.52 57.61 56.93 51.10 48.40 48.30 49.86 52.22 53.58 54.03 53.30 52.41 51.81 51.07 50.28 49.76 49.33 48.95 48.83 48.88 49.15 49.46 49.80 50.29 50.78 50.91 51.01 51.38
61.56 61.56 61.55 61.68 61.79 61.94 61.95 62.04 62.05 62.04 62.02 61.97 61.76 61.54 61.26 61.16 60.95 60.86 60.88 60.68 60.78 60.80 60.81 60.89 60.82 60.39 59.95 60.80 60.67 60.46 60.24 60.02 59.96 59.84 59.59 59.28 58.93 58.58 58.13 57.49 57.41 58.56 58.28 54.10 46.86 44.11 44.07 45.03 46.42 48.68 51.04 53.04 51.63 50.60 49.86 49.34 49.08 48.87 48.83 48.98 48.98 49.12 49.25 49.56 49.96 50.26 50.60 50.81 51.15
61.34 61.33 61.54 61.58 61.62 61.60 61.57 61.66 61.79 61.95 61.87 61.88 61.65 61.53 61.41 61.39 61.12 60.80 60.56 60.41 60.28 60.44 60.45 60.45 60.67 59.34 58.57 60.68 60.52 60.29 60.06 60.12 60.30 60.25 60.10 59.64 59.12 58.49 57.96 57.59 57.42 58.57 57.20 50.14 44.28 42.26 42.48 43.15 43.58 44.94 47.53 51.37 50.37 49.68 49.16 48.77 48.69 48.70 48.75 49.02 49.12 49.12 49.12 49.25 49.61 49.83 50.05 50.35 50.86
61.18 61.18 61.39 61.51 61.28 61.21 61.21 61.41 61.46 61.52 61.53 61.60 61.63 61.65 61.74 61.73 61.27 60.70 60.16 59.93 60.01 60.01 60.00 60.07 59.97 59.78 59.82 60.42 60.28 60.13 60.11 60.25 60.34 60.33 60.24 59.96 59.21 58.62 58.12 57.75 58.37 58.06 54.40 46.43 43.54 42.23 41.96 42.23 42.57 43.22 44.45 46.74 48.68 49.03 48.68 48.59 48.42 48.48 48.75 49.07 49.30 49.34 49.43 49.52 49.70 49.79 49.88 49.92 49.96
61.30 61.38 61.31 61.11 61.03 61.10 61.09 61.09 61.06 61.23 61.23 61.43 61.42 61.87 62.18 62.10 61.40 60.75 60.19 60.01 60.14 60.04 60.10 60.17 59.96 60.29 60.50 60.14 60.15 60.27 60.33 60.39 60.39 60.42 60.29 60.17 59.91 59.35 58.79 58.56 58.92 55.45 48.69 40.99 42.14 42.06 41.62 41.70 41.83 42.04 42.82 44.23 47.71 48.88 48.86 48.43 48.36 48.51 48.79 49.12 49.35 49.39 49.44 49.53 49.66 49.71 49.62 49.40 49.08
61.50 61.44 61.25 61.02 60.96 60.96 60.96 60.96 60.96 61.09 61.12 61.16 61.12 61.54 61.94 62.05 61.26 60.61 60.13 59.95 59.95 60.02 60.21 60.73 60.81 60.72 60.61 60.58 60.75 60.56 60.32 60.32 60.73 60.92 60.93 60.83 60.05 59.68 59.24 58.29 58.22 53.10 45.42 38.97 40.82 41.41 41.49 41.54 41.49 41.53 41.92 42.78 46.39 48.61 49.46 49.05 49.06 48.98 48.94 49.26 49.44 49.39 49.26 49.44 49.57 49.71 49.58 49.04 48.59
61.37 61.33 61.13 61.13 61.02 60.96 60.96 61.04 61.09 61.06 60.96 60.69 60.68 60.71 60.68 60.70 60.69 60.46 60.32 60.22 60.16 59.77 59.71 60.74 60.87 60.71 60.73 61.00 60.87 60.68 60.57 60.62 61.00 61.07 61.14 60.94 59.24 58.86 58.72 57.73 54.59 49.27 43.54 39.10 40.39 41.06 41.28 41.51 41.41 41.32 41.27 41.43 44.84 47.94 49.85 49.64 49.47 49.48 49.53 49.71 49.80 49.80 49.67 49.76 49.76 49.58 49.31 48.95 48.41
61.01 60.92 60.85 60.89 60.89 61.02 61.04 61.18 61.21 61.03 60.86 60.68 60.43 60.23 60.26 60.35 60.63 60.70 60.81 60.59 60.48 60.37 60.24 60.39 60.56 60.46 60.62 60.84 60.73 60.63 60.66 60.67 60.60 60.41 60.15 59.64 58.85 57.68 56.51 55.35 53.87 49.62 44.07 39.16 40.27 40.80 41.02 41.16 41.06 40.88 40.70 40.37 43.42 47.05 49.71 49.68 49.74 49.97 50.20 50.33 50.42 50.42 50.34 50.16 49.85 49.58 49.26 48.90 48.31
60.40 60.42 60.45 60.51 60.46 60.73 60.92 61.19 61.15 60.91 60.68 60.58 60.40 60.27 60.13 60.19 60.48 61.00 61.19 60.84 60.56 60.53 60.59 60.20 60.41 60.50 60.48 60.38 60.05 59.88 59.68 59.45 58.94 57.98 57.06 56.65 56.29 55.65 55.00 54.17 54.38 50.54 44.70 39.42 40.21 40.49 40.54 40.72 40.76 40.53 40.20 39.74 43.01 46.56 49.15 49.79 50.06 50.43 50.84 51.06 51.06 50.92 50.61 50.34 49.89 49.44 48.94 48.58 48.22
60.21 60.38 60.53 60.52 60.14 60.18 60.61 61.00 61.06 61.06 61.19 61.55 61.51 61.34 61.05 60.66 60.58 60.80 60.92 60.33 60.54 60.68 60.86 60.82 60.92 60.63 60.03 59.38 59.05 58.64 58.06 57.08 56.88 56.60 56.33 55.88 55.46 54.96 54.60 54.57 54.96 50.93 44.91 40.11 40.34 40.45 40.47 40.65 40.64 40.54 40.25 39.39 43.08 46.34 48.75 49.70 50.25 50.70 51.06 51.15 51.06 50.52 49.97 49.30 49.12 48.85 48.71 48.48 48.26
60.87 60.87 60.84 60.62 60.40 60.52 60.69 61.15 61.04 61.25 61.67 62.09 62.16 61.89 61.48 60.83 60.64 60.50 60.22 59.49 59.79 60.51 61.01 60.49 60.05 59.49 58.92 58.56 58.19 57.37 56.46 56.02 56.29 56.14 55.82 55.65 55.36 54.95 54.61 54.73 55.29 50.72 44.75 41.51 41.06 40.96 41.02 41.15 41.06 40.83 40.58 40.16 43.69 46.56 48.67 49.62 50.21 50.70 51.01 50.97 48.76 47.37 46.43 45.67 45.27 45.04 45.18 45.76 46.65
61.20 61.15 60.96 60.63 60.52 60.58 60.97 61.64 61.51 61.68 61.87 61.96 61.87 61.49 61.06 60.69 60.58 60.23 59.47 58.19 58.66 59.11 59.16 58.34 58.02 57.97 57.81 57.41 57.02 56.15 55.51 56.00 55.93 55.77 55.57 55.39 55.30 55.13 55.14 55.08 55.81 51.40 45.61 42.25 41.76 41.64 41.70 41.79 41.52 41.02 40.92 41.96 44.93 47.05 48.50 49.35 49.85 49.48 48.76 47.95 41.82 38.91 38.10 37.55 37.70 38.07 38.98 40.24 41.73
61.58 61.56 61.25 60.37 60.00 60.13 60.49 61.24 61.35 61.64 61.83 61.80 61.49 61.02 60.63 60.22 59.73 59.15 58.41 57.37 57.99 57.55 56.84 56.21 56.32 56.62 56.93 56.74 56.46 56.13 56.02 56.35 56.03 55.70 55.40 54.83 54.98 55.16 55.26 55.27 56.22 51.72 45.34 40.99 40.76 41.03 41.53 41.71 41.17 40.71 41.17 43.52 45.92 47.23 48.18 48.81 48.18 45.02 41.37 39.17 38.17 37.68 37.52 37.01 36.47 36.07 35.96 36.21 37.10
62.21 62.08 61.27 59.87 59.77 60.02 60.40 60.87 60.95 61.04 61.13 61.29 60.70 60.18 59.61 58.88 58.19 57.56 56.87 55.71 56.59 56.39 55.77 55.76 55.67 56.01 56.66 57.42 57.10 56.71 56.04 55.19 54.35 54.27 54.58 54.43 54.18 54.14 53.98 53.73 52.54 47.91 42.34 38.44 38.55 39.17 39.90 40.62 40.17 39.90 40.99 44.21 46.15 47.14 47.59 47.23 44.16 40.82 38.25 37.39 37.26 37.13 36.88 36.32 35.55 34.84 34.22 33.94 34.35
62.29 61.52 60.55 59.83 59.72 59.82 60.12 60.20 60.40 60.69 60.77 60.51 59.76 59.05 58.45 57.65 57.00 56.48 56.05 55.80 56.40 56.44 56.21 56.33 56.56 56.98 56.75 55.56 54.09 52.29 50.49 48.90 47.87 47.73 48.00 48.23 47.37 47.05 46.83 46.56 44.13 41.68 39.22 37.28 37.51 38.23 38.91 39.59 39.40 39.40 40.49 43.62 46.11 47.01 46.60 44.62 41.05 38.93 37.85 37.54 36.99 36.41 35.79 35.16 34.53 33.90 33.34 33.04 33.11
61.74 60.97 60.41 60.08 59.71 59.66 59.66 59.72 60.24 60.84 60.97 60.13 59.27 58.62 57.97 57.43 56.42 56.21 56.36 56.68 57.09 57.26 57.51 57.80 57.49 56.05 53.28 48.77 46.87 44.93 43.45 42.73 42.28 41.75 41.17 40.78 40.10 39.82 39.85 40.24 39.50 38.65 37.70 36.77 37.20 37.92 38.60 39.10 39.14 39.41 40.68 44.02 46.15 46.20 44.57 41.91 39.61 38.35 37.81 37.35 36.45 35.42 34.61 34.05 33.65 33.29 32.94 32.74 32.74
61.35 60.72 60.11 59.74 59.70 59.78 59.86 60.09 60.59 61.06 60.98 59.99 59.47 58.61 57.82 56.98 56.88 57.22 57.63 57.91 58.05 58.18 57.88 56.64 53.93 50.62 47.14 43.98 43.26 42.27 40.97 39.75 39.40 39.12 38.81 38.26 38.00 37.84 37.90 37.99 37.76 37.24 36.59 36.03 36.32 37.07 37.93 38.78 39.32 39.96 41.13 43.57 45.34 44.71 42.77 40.65 39.21 38.22 37.41 36.68 35.69 34.43 33.36 32.84 32.71 32.64 32.69 32.79 32.79
MSLP
1010.47 1010.75 1010.95 1010.99 1010.99 1011.03 1011.15 1011.27 1011.39 1011.55 1011.71 1011.87 1011.99 1012.15 1012.35 1012.59 1012.91 1013.19 1013.47 1013.71 1013.99 1014.19 1014.39 1014.55 1014.75 1014.95 1015.15 1015.39 1015.59 1015.83 1015.99 1016.15 1016.31 1016.47 1016.63 1016.79 1016.91 1017.07 1017.23 1017.39 1017.51 1017.67 1017.79 1017.91 1018.03 1018.19 1018.35 1018.43 1018.55 1018.67 1018.75 1018.87 1018.91 1018.99 1019.03 1019.11 1019.19 1019.27 1019.39 1019.47 1019.55 1019.59 1019.63 1019.67 1019.67 1019.67 1019.67 1019.71 1019.71
1010.47 1010.59 1010.63 1010.71 1010.79 1010.91 1011.03 1011.15 1011.35 1011.51 1011.67 1011.83 1011.99 1012.07 1012.27 1012.47 1012.75 1013.07 1013.35 1013.55 1013.79 1013.99 1014.23 1014.43 1014.59 1014.83 1015.03 1015.27 1015.51 1015.71 1015.91 1016.11 1016.23 1016.39 1016.59 1016.71 1016.83 1016.95 1017.11 1017.27 1017.39 1017.51 1017.63 1017.75 1017.91 1018.07 1018.19 1018.35 1018.43 1018.55 1018.63 1018.71 1018.83 1018.87 1018.91 1018.99 1019.11 1019.19 1019.27 1019.35 1019.43 1019.51 1019.55 1019.55 1019.55 1019.55 1019.55 1019.55 1019.55
1010.27 1010.31 1010.43 1010.51 1010.71 1010.83 1010.99 1011.11 1011.35 1011.51 1011.67 1011.83 1011.99 1012.07 1012.19 1012.43 1012.71 1012.95 1013.23 1013.43 1013.67 1013.87 1014.11 1014.27 1014.47 1014.67 1014.91 1015.15 1015.39 1015.59 1015.79 1015.95 1016.15 1016.27 1016.43 1016.59 1016.71 1016.87 1016.99 1017.15 1017.27 1017.39 1017.51 1017.63 1017.75 1017.87 1018.03 1018.23 1018.31 1018.43 1018.47 1018.59 1018.67 1018.71 1018.79 1018.87 1018.99 1019.11 1019.15 1019.19 1019.27 1019.39 1019.43 1019.43 1019.35 1019.35 1019.43 1019.43 1019.43
1010.07 1010.15 1010.31 1010.43 1010.59 1010.71 1010.87 1011.07 1011.31 1011.51 1011.67 1011.83 1011.99 1012.07 1012.19 1012.39 1012.63 1012.87 1013.15 1013.35 1013.59 1013.79 1013.99 1014.11 1014.27 1014.51 1014.75 1014.99 1015.27 1015.47 1015.67 1015.87 1016.03 1016.15 1016.31 1016.43 1016.59 1016.71 1016.83 1016.95 1017.15 1017.27 1017.39 1017.51 1017.67 1017.79 1017.95 1018.07 1018.23 1018.31 1018.35 1018.35 1018.43 1018.51 1018.59 1018.67 1018.79 1018.91 1018.99 1019.07 1019.15 1019.23 1019.27 1019.23 1019.19 1019.23 1019.27 1019.27 1019.27
1009.91 1010.07 1010.27 1010.43 1010.59 1010.71 1010.87 1011.07 1011.31 1011.47 1011.55 1011.71 1011.95 1012.11 1012.23 1012.39 1012.59 1012.83 1013.07 1013.27 1013.51 1013.67 1013.83 1013.95 1014.15 1014.35 1014.59 1014.79 1015.07 1015.31 1015.55 1015.71 1015.91 1016.07 1016.15 1016.27 1016.43 1016.55 1016.67 1016.79 1016.95 1017.11 1017.27 1017.43 1017.55 1017.71 1017.87 1017.99 1018.07 1018.15 1018.19 1018.23 1018.27 1018.35 1018.39 1018.43 1018.59 1018.71 1018.83 1018.91 1018.99 1019.03 1019.03 1019.03 1019.07 1019.11 1019.11 1019.11 1019.15
1009.87 1010.03 1010.19 1010.39 1010.59 1010.71 1010.87 1011.03 1011.23 1011.39 1011.55 1011.71 1011.91 1012.07 1012.19 1012.35 1012.55 1012.75 1012.99 1013.15 1013.31 1013.51 1013.71 1013.87 1013.99 1014.19 1014.43 1014.67 1014.91 1015.15 1015.39 1015.59 1015.79 1015.91 1015.99 1016.11 1016.23 1016.35 1016.55 1016.71 1016.87 1016.99 1017.11 1017.27 1017.43 1017.63 1017.75 1017.87 1017.95 1017.99 1017.99 1018.07 1018.15 1018.15 1018.19 1018.31 1018.43 1018.55 1018.63 1018.71 1018.79 1018.87 1018.87 1018.91 1018.91 1018.95 1018.99 1018.99 1019.03
1009.71 1009.95 1010.15 1010.31 1010.51 1010.67 1010.79 1010.91 1011.11 1011.35 1011.55 1011.71 1011.87 1012.03 1012.15 1012.27 1012.47 1012.63 1012.83 1012.99 1013.15 1013.39 1013.63 1013.79 1013.87 1014.07 1014.27 1014.47 1014.75 1014.99 1015.23 1015.43 1015.59 1015.71 1015.83 1015.91 1015.99 1016.15 1016.31 1016.51 1016.67 1016.83 1016.95 1017.11 1017.27 1017.47 1017.63 1017.75 1017.83 1017.87 1017.87 1017.95 1017.99 1017.99 1018.07 1018.15 1018.27 1018.31 1018.43 1018.51 1018.59 1018.63 1018.71 1018.75 1018.79 1018.83 1018.87 1018.87 1018.95
1009.55 1009.79 1009.99 1010.15 1010.35 1010.51 1010.67 1010.87 1011.03 1011.27 1011.51 1011.67 1011.79 1011.95 1012.07 1012.23 1012.39 1012.55 1012.71 1012.87 1013.03 1013.27 1013.43 1013.59 1013.75 1013.87 1014.03 1014.23 1014.51 1014.79 1014.99 1015.15 1015.39 1015.55 1015.63 1015.71 1015.83 1015.95 1016.11 1016.27 1016.47 1016.63 1016.75 1016.87 1017.07 1017.27 1017.43 1017.59 1017.67 1017.67 1017.71 1017.75 1017.79 1017.83 1017.87 1017.99 1018.07 1018.15 1018.15 1018.23 1018.31 1018.43 1018.55 1018.63 1018.67 1018.71 1018.75 1018.83 1018.91
1009.43 1009.59 1009.79 1009.99 1010.15 1010.39 1010.59 1010.79 1010.99 1011.19 1011.43 1011.55 1011.71 1011.87 1011.99 1012.15 1012.27 1012.43 1012.59 1012.79 1012.91 1013.07 1013.23 1013.43 1013.59 1013.71 1013.87 1014.03 1014.27 1014.51 1014.71 1014.91 1015.07 1015.23 1015.39 1015.51 1015.67 1015.75 1015.87 1016.03 1016.23 1016.43 1016.59 1016.71 1016.87 1017.03 1017.19 1017.39 1017.47 1017.47 1017.47 1017.51 1017.55 1017.59 1017.67 1017.79 1017.91 1017.95 1017.99 1018.03 1018.11 1018.23 1018.31 1018.43 1018.55 1018.59 1018.71 1018.79 1018.91
1009.19 1009.39 1009.59 1009.83 1010.03 1010.27 1010.51 1010.71 1010.87 1011.07 1011.27 1011.43 1011.59 1011.75 1011.91 1012.07 1012.19 1012.35 1012.51 1012.63 1012.75 1012.91 1013.07 1013.23 1013.43 1013.59 1013.75 1013.87 1014.07 1014.27 1014.43 1014.59 1014.79 1014.95 1015.11 1015.27 1015.39 1015.51 1015.63 1015.75 1015.95 1016.11 1016.27 1016.47 1016.63 1016.79 1016.99 1017.15 1017.19 1017.27 1017.27 1017.31 1017.35 1017.43 1017.55 1017.67 1017.79 1017.79 1017.83 1017.91 1017.95 1017.99 1018.11 1018.23 1018.35 1018.47 1018.59 1018.71 1018.83
1009.03 1009.23 1009.43 1009.67 1009.87 1010.15 1010.39 1010.59 1010.75 1010.91 1011.11 1011.27 1011.43 1011.63 1011.83 1011.95 1012.11 1012.19 1012.31 1012.43 1012.59 1012.75 1012.87 1012.99 1013.19 1013.43 1013.55 1013.71 1013.87 1013.99 1014.19 1014.31 1014.43 1014.59 1014.79 1014.95 1015.07 1015.19 1015.35 1015.47 1015.63 1015.83 1015.99 1016.15 1016.35 1016.55 1016.71 1016.87 1016.91 1016.99 1017.07 1017.15 1017.19 1017.27 1017.35 1017.51 1017.59 1017.67 1017.67 1017.71 1017.75 1017.83 1017.87 1017.99 1018.15 1018.27 1018.43 1018.55 1018.67
1008.87 1009.07 1009.27 1009.47 1009.71 1009.99 1010.19 1010.43 1010.59 1010.75 1010.91 1011.07 1011.23 1011.43 1011.59 1011.75 1011.87 1011.99 1012.15 1012.27 1012.43 1012.59 1012.67 1012.79 1012.99 1013.15 1013.31 1013.43 1013.55 1013.71 1013.87 1014.03 1014.15 1014.31 1014.43 1014.59 1014.75 1014.91 1015.03 1015.19 1015.35 1015.51 1015.71 1015.87 1016.11 1016.27 1016.43 1016.59 1016.63 1016.71 1016.87 1016.95 1017.03 1017.15 1017.19 1017.27 1017.43 1017.47 1017.51 1017.55 1017.63 1017.67 1017.71 1017.75 1017.91 1018.11 1018.23 1018.31 1018.51
1008.71 1008.95 1009.15 1009.27 1009.55 1009.79 1010.03 1010.23 1010.39 1010.51 1010.71 1010.87 1010.99 1011.15 1011.31 1011.47 1011.63 1011.79 1011.91 1012.07 1012.19 1012.27 1012.43 1012.59 1012.71 1012.91 1013.07 1013.19 1013.31 1013.43 1013.59 1013.75 1013.87 1013.99 1014.15 1014.27 1014.43 1014.59 1014.75 1014.91 1015.11 1015.27 1015.43 1015.59 1015.79 1015.99 1016.15 1016.27 1016.35 1016.43 1016.59 1016.67 1016.79 1016.87 1016.99 1017.11 1017.19 1017.27 1017.31 1017.35 1017.43 1017.47 1017.51 1017.59 1017.75 1017.95 1018.07 1018.19 1018.35
1008.59 1008.79 1008.99 1009.15 1009.35 1009.59 1009.83 1009.99 1010.15 1010.31 1010.43 1010.59 1010.71 1010.87 1011.03 1011.19 1011.35 1011.51 1011.67 1011.79 1011.91 1011.99 1012.15 1012.27 1012.47 1012.63 1012.75 1012.91 1013.03 1013.15 1013.31 1013.43 1013.55 1013.71 1013.83 1013.99 1014.11 1014.27 1014.43 1014.63 1014.79 1014.99 1015.15 1015.31 1015.51 1015.67 1015.79 1015.91 1016.03 1016.19 1016.31 1016.43 1016.55 1016.67 1016.83 1016.95 1016.99 1017.07 1017.15 1017.19 1017.23 1017.27 1017.39 1017.55 1017.71 1017.87 1018.07 1018.19 1018.27
1008.55 1008.71 1008.87 1009.07 1009.27 1009.43 1009.63 1009.83 1009.99 1010.11 1010.23 1010.35 1010.47 1010.59 1010.75 1010.91 1011.03 1011.23 1011.39 1011.51 1011.63 1011.71 1011.87 1012.03 1012.15 1012.31 1012.47 1012.63 1012.75 1012.91 1013.07 1013.19 1013.31 1013.43 1013.55 1013.71 1013.87 1013.99 1014.15 1014.27 1014.47 1014.67 1014.87 1014.99 1015.23 1015.39 1015.51 1015.63 1015.75 1015.95 1016.11 1016.23 1016.31 1016.43 1016.59 1016.71 1016.83 1016.91 1016.99 1017.07 1017.15 1017.27 1017.35 1017.55 1017.71 1017.91 1018.11 1018.19 1018.27
1008.43 1008.59 1008.75 1008.95 1009.15 1009.27 1009.43 1009.59 1009.71 1009.87 1009.99 1010.11 1010.19 1010.35 1010.47 1010.59 1010.71 1010.91 1011.11 1011.27 1011.35 1011.47 1011.59 1011.71 1011.83 1011.99 1012.15 1012.39 1012.51 1012.71 1012.87 1012.99 1013.11 1013.23 1013.35 1013.43 1013.55 1013.71 1013.87 1013.99 1014.15 1014.35 1014.55 1014.71 1014.87 1015.07 1015.23 1015.39 1015.55 1015.71 1015.87 1016.03 1016.15 1016.27 1016.39 1016.51 1016.67 1016.79 1016.91 1016.99 1017.15 1017.27 1017.39 1017.55 1017.71 1017.91 1018.07 1018.15 1018.19
1008.27 1008.43 1008.59 1008.75 1008.95 1009.11 1009.23 1009.35 1009.43 1009.55 1009.71 1009.83 1009.95 1010.11 1010.23 1010.31 1010.43 1010.59 1010.83 1010.99 1011.11 1011.23 1011.31 1011.43 1011.55 1011.71 1011.87 1012.11 1012.27 1012.43 1012.59 1012.75 1012.87 1012.99 1013.11 1013.19 1013.31 1013.43 1013.55 1013.71 1013.87 1013.99 1014.23 1014.43 1014.59 1014.71 1014.91 1015.15 1015.35 1015.55 1015.71 1015.87 1015.99 1016.11 1016.19 1016.35 1016.51 1016.71 1016.87 1016.99 1017.15 1017.27 1017.39 1017.51 1017.71 1017.87 1017.99 1018.07 1018.11
1008.03 1008.19 1008.35 1008.55 1008.71 1008.87 1008.99 1009.11 1009.15 1009.27 1009.39 1009.51 1009.67 1009.79 1009.95 1010.07 1010.15 1010.31 1010.51 1010.71 1010.87 1010.99 1011.11 1011.19 1011.27 1011.43 1011.63 1011.87 1012.03 1012.23 1012.39 1012.51 1012.59 1012.71 1012.87 1012.95 1013.07 1013.19 1013.31 1013.47 1013.59 1013.75 1013.99 1014.15 1014.35 1014.51 1014.67 1014.87 1015.15 1015.35 1015.55 1015.71 1015.91 1015.99 1016.11 1016.23 1016.43 1016.59 1016.75 1016.91 1017.03 1017.15 1017.27 1017.39 1017.55 1017.67 1017.79 1017.87 1017.91
1007.79 1007.95 1008.11 1008.27 1008.43 1008.55 1008.71 1008.83 1008.91 1009.03 1009.15 1009.27 1009.39 1009.51 1009.67 1009.79 1009.91 1010.07 1010.27 1010.43 1010.59 1010.75 1010.91 1011.03 1011.15 1011.27 1011.43 1011.55 1011.75 1011.99 1012.15 1012.27 1012.43 1012.51 1012.63 1012.75 1012.87 1012.99 1013.11 1013.23 1013.35 1013.55 1013.71 1013.95 1014.15 1014.35 1014.55 1014.71 1014.95 1015.15 1015.39 1015.55 1015.75 1015.91 1016.03 1016.15 1016.27 1016.47 1016.63 1016.75 1016.87 1016.99 1017.07 1017.15 1017.31 1017.43 1017.55 1017.63 1017.71
1007.51 1007.67 1007.79 1007.95 1008.11 1008.27 1008.39 1008.55 1008.67 1008.79 1008.91 1009.03 1009.15 1009.27 1009.43 1009.55 1009.71 1009.87 1010.03 1010.19 1010.39 1010.59 1010.75 1010.91 1010.99 1011.11 1011.23 1011.35 1011.55 1011.71 1011.95 1012.11 1012.27 1012.39 1012.47 1012.59 1012.71 1012.79 1012.87 1012.99 1013.15 1013.35 1013.55 1013.75 1013.99 1014.23 1014.43 1014.63 1014.83 1015.03 1015.23 1015.43 1015.59 1015.75 1015.91 1016.03 1016.23 1016.39 1016.51 1016.63 1016.71 1016.79 1016.87 1016.99 1017.11 1017.23 1017.31 1017.43 1017.47
1007.23 1007.39 1007.51 1007.67 1007.79 1007.95 1008.11 1008.27 1008.43 1008.59 1008.71 1008.87 1008.99 1009.11 1009.23 1009.35 1009.51 1009.67 1009.83 1009.95 1010.15 1010.39 1010.59 1010.75 1010.87 1010.99 1011.11 1011.19 1011.39 1011.55 1011.71 1011.91 1012.11 1012.27 1012.35 1012.43 1012.55 1012.63 1012.71 1012.87 1012.99 1013.19 1013.39 1013.59 1013.83 1014.07 1014.27 1014.51 1014.71 1014.87 1015.07 1015.23 1015.43 1015.59 1015.71 1015.87 1016.07 1016.27 1016.39 1016.47 1016.59 1016.67 1016.75 1016.83 1016.91 1016.99 1017.11 1017.19 1017.27
1006.99 1007.11 1007.27 1007.43 1007.55 1007.71 1007.87 1008.07 1008.27 1008.43 1008.59 1008.75 1008.87 1008.99 1009.07 1009.19 1009.31 1009.43 1009.59 1009.75 1009.99 1010.23 1010.43 1010.59 1010.75 1010.87 1010.95 1011.07 1011.23 1011.39 1011.55 1011.75 1011.95 1012.11 1012.27 1012.39 1012.43 1012.51 1012.63 1012.79 1012.95 1013.11 1013.27 1013.43 1013.67 1013.91 1014.15 1014.31 1014.47 1014.67 1014.87 1014.99 1015.23 1015.43 1015.55 1015.71 1015.87 1016.03 1016.19 1016.31 1016.43 1016.59 1016.71 1016.75 1016.83 1016.87 1016.95 1016.99 1017.03
1006.75 1006.91 1007.07 1007.23 1007.39 1007.55 1007.75 1007.95 1008.15 1008.31 1008.43 1008.59 1008.71 1008.83 1008.95 1009.03 1009.15 1009.27 1009.43 1009.71 1009.87 1010.07 1010.27 1010.43 1010.59 1010.71 1010.87 1010.95 1011.07 1011.23 1011.43 1011.59 1011.83 1011.99 1012.15 1012.27 1012.39 1012.47 1012.59 1012.75 1012.87 1012.99 1013.15 1013.31 1013.51 1013.71 1013.87 1014.11 1014.27 1014.47 1014.63 1014.79 1014.99 1015.19 1015.39 1015.55 1015.71 1015.87 1016.03 1016.19 1016.39 1016.55 1016.71 1016.75 1016.83 1016.83 1016.87 1016.87 1016.87
1006.59 1006.75 1006.95 1007.11 1007.27 1007.47 1007.67 1007.87 1007.99 1008.15 1008.31 1008.47 1008.59 1008.71 1008.79 1008.95 1009.03 1009.15 1009.35 1009.55 1009.75 1009.87 1010.03 1010.23 1010.43 1010.59 1010.71 1010.87 1010.99 1011.15 1011.27 1011.47 1011.63 1011.79 1011.99 1012.15 1012.27 1012.43 1012.55 1012.67 1012.79 1012.91 1013.03 1013.19 1013.43 1013.55 1013.71 1013.95 1014.15 1014.35 1014.51 1014.71 1014.87 1015.07 1015.27 1015.43 1015.59 1015.75 1015.91 1016.11 1016.31 1016.47 1016.59 1016.67 1016.67 1016.71 1016.71 1016.71 1016.79
1006.55 1006.67 1006.83 1006.99 1007.19 1007.39 1007.55 1007.75 1007.95 1008.11 1008.23 1008.35 1008.47 1008.59 1008.71 1008.87 1008.95 1009.07 1009.23 1009.39 1009.55 1009.71 1009.87 1010.03 1010.23 1010.43 1010.63 1010.79 1010.95 1011.07 1011.19 1011.31 1011.43 1011.59 1011.83 1011.99 1012.19 1012.35 1012.51 1012.59 1012.71 1012.87 1012.99 1013.15 1013.43 1013.67 1013.83 1013.95 1014.11 1014.27 1014.47 1014.71 1014.91 1015.07 1015.27 1015.43 1015.59 1015.71 1015.87 1016.07 1016.23 1016.27 1016.31 1016.31 1016.35 1016.39 1016.43 1016.55 1016.67
1006.43 1006.59 1006.75 1006.91 1007.11 1007.31 1007.51 1007.71 1007.87 1007.99 1008.15 1008.27 1008.43 1008.55 1008.63 1008.71 1008.83 1008.95 1009.07 1009.27 1009.39 1009.55 1009.71 1009.91 1010.11 1010.27 1010.51 1010.71 1010.87 1010.99 1011.11 1011.19 1011.31 1011.47 1011.67 1011.87 1012.03 1012.27 1012.43 1012.55 1012.71 1012.83 1012.99 1013.23 1013.51 1013.75 1013.91 1014.07 1014.19 1014.35 1014.55 1014.75 1014.99 1015.15 1015.35 1015.51 1015.63 1015.71 1015.87 1015.99 1016.03 1016.03 1015.99 1015.99 1016.03 1016.11 1016.19 1016.27 1016.43
1006.35 1006.51 1006.67 1006.83 1007.03 1007.23 1007.39 1007.55 1007.71 1007.87 1008.07 1008.19 1008.35 1008.47 1008.59 1008.67 1008.75 1008.87 1008.99 1009.11 1009.27 1009.43 1009.63 1009.83 1009.99 1010.19 1010.43 1010.59 1010.75 1010.87 1010.99 1011.11 1011.27 1011.39 1011.55 1011.71 1011.95 1012.15 1012.27 1012.39 1012.55 1012.71 1012.91 1013.27 1013.55 1013.83 1014.03 1014.19 1014.31 1014.47 1014.59 1014.79 1014.99 1015.19 1015.35 1015.47 1015.59 1015.71 1015.87 1015.95 1015.95 1015.95 1015.91 1015.87 1015.87 1015.87 1015.95 1016.03 1016.15
1006.19 1006.35 1006.51 1006.71 1006.87 1007.03 1007.19 1007.35 1007.55 1007.75 1007.91 1008.03 1008.23 1008.35 1008.51 1008.67 1008.79 1008.87 1008.99 1009.03 1009.19 1009.39 1009.55 1009.75 1009.91 1010.11 1010.27 1010.43 1010.59 1010.71 1010.87 1010.99 1011.15 1011.27 1011.43 1011.55 1011.79 1011.99 1012.15 1012.31 1012.43 1012.63 1012.87 1013.27 1013.59 1013.87 1014.15 1014.31 1014.43 1014.59 1014.71 1014.87 1015.03 1015.23 1015.35 1015.43 1015.55 1015.67 1015.79 1015.83 1015.87 1015.87 1015.87 1015.75 1015.71 1015.75 1015.83 1015.87 1015.99
1005.99 1006.15 1006.31 1006.51 1006.67 1006.83 1006.99 1007.15 1007.27 1007.47 1007.67 1007.87 1008.07 1008.27 1008.47 1008.67 1008.79 1008.87 1008.95 1009.03 1009.15 1009.35 1009.55 1009.67 1009.83 1009.99 1010.15 1010.31 1010.43 1010.59 1010.71 1010.87 1010.99 1011.15 1011.27 1011.55 1011.79 1011.99 1012.15 1012.27 1012.39 1012.67 1013.03 1013.35 1013.59 1013.87 1014.15 1014.35 1014.51 1014.63 1014.75 1014.91 1015.11 1015.27 1015.43 1015.51 1015.55 1015.59 1015.63 1015.67 1015.67 1015.67 1015.63 1015.59 1015.59 1015.63 1015.67 1015.71 1015.87
1005.75 1005.95 1006.15 1006.27 1006.35 1006.51 1006.71 1006.87 1006.99 1007.15 1007.39 1007.67 1007.91 1008.19 1008.43 1008.59 1008.71 1008.83 1008.91 1008.99 1009.15 1009.27 1009.39 1009.55 1009.71 1009.91 1010.03 1010.19 1010.31 1010.47 1010.63 1010.75 1010.87 1011.07 1011.27 1011.51 1011.71 1011.95 1012.11 1012.27 1012.51 1012.87 1013.27 1013.43 1013.67 1013.91 1014.15 1014.31 1014.47 1014.63 1014.71 1014.87 1014.95 1015.11 1015.27 1015.35 1015.39 1015.43 1015.47 1015.43 1015.43 1015.43 1015.51 1015.55 1015.55 1015.55 1015.55 1015.67 1015.79
1005.51 1005.71 1005.87 1005.99 1006.07 1006.19 1006.35 1006.51 1006.71 1006.91 1007.19 1007.47 1007.75 1007.99 1008.27 1008.47 1008.59 1008.71 1008.83 1008.91 1008.99 1009.15 1009.27 1009.47 1009.67 1009.83 1009.95 1010.11 1010.23 1010.39 1010.51 1010.67 1010.87 1011.07 1011.31 1011.51 1011.75 1011.95 1012.15 1012.47 1012.83 1013.15 1013.35 1013.55 1013.67 1013.87 1014.03 1014.19 1014.27 1014.43 1014.51 1014.59 1014.67 1014.75 1014.87 1014.99 1015.07 1015.15 1015.19 1015.27 1015.27 1015.39 1015.51 1015.55 1015.55 1015.55 1015.55 1015.63 1015.75
1005.23 1005.39 1005.51 1005.71 1005.83 1005.95 1006.07 1006.27 1006.55 1006.79 1007.03 1007.31 1007.55 1007.83 1008.03 1008.23 1008.43 1008.55 1008.67 1008.79 1008.91 1009.07 1009.27 1009.43 1009.55 1009.71 1009.87 1009.99 1010.15 1010.35 1010.51 1010.71 1010.99 1011.23 1011.47 1011.71 1011.95 1012.27 1012.51 1012.71 1012.91 1013.15 1013.39 1013.55 1013.63 1013.75 1013.87 1013.99 1014.07 1014.15 1014.27 1014.39 1014.43 1014.47 1014.55 1014.67 1014.83 1014.95 1015.07 1015.15 1015.23 1015.35 1015.47 1015.55 1015.63 1015.59 1015.55 1015.63 1015.71
1004.99 1005.15 1005.35 1005.55 1005.63 1005.79 1005.95 1006.15 1006.43 1006.67 1006.91 1007.19 1007.43 1007.63 1007.87 1008.03 1008.27 1008.43 1008.63 1008.75 1008.87 1008.99 1009.15 1009.27 1009.43 1009.55 1009.75 1009.99 1010.27 1010.55 1010.75 1011.03 1011.27 1011.55 1011.79 1011.99 1012.27 1012.43 1012.63 1012.79 1012.91 1013.11 1013.31 1013.51 1013.55 1013.63 1013.71 1013.79 1013.87 1013.99 1014.15 1014.27 1014.35 1014.39 1014.47 1014.63 1014.83 1014.99 1015.07 1015.15 1015.23 1015.31 1015.43 1015.51 1015.55 1015.55 1015.59 1015.63 1015.75
1004.87 1005.11 1005.31 1005.47 1005.59 1005.79 1005.99 1006.15 1006.35 1006.59 1006.87 1007.15 1007.35 1007.55 1007.75 1007.99 1008.19 1008.43 1008.59 1008.71 1008.83 1008.87 1008.99 1009.15 1009.27 1009.55 1009.87 1010.15 1010.47 1010.79 1011.11 1011.43 1011.67 1011.87 1011.99 1012.19 1012.39 1012.55 1012.71 1012.75 1012.79 1012.95 1013.23 1013.43 1013.43 1013.51 1013.59 1013.67 1013.75 1013.87 1013.99 1014.19 1014.27 1014.43 1014.55 1014.71 1014.87 1014.99 1015.07 1015.15 1015.23 1015.31 1015.43 1015.51 1015.55 1015.59 1015.63 1015.67 1015.75
1004.71 1004.99 1005.23 1005.43 1005.59 1005.79 1005.99 1006.15 1006.35 1006.59 1006.87 1007.11 1007.31 1007.51 1007.71 1007.87 1008.11 1008.27 1008.47 1008.67 1008.79 1008.91 1009.07 1009.27 1009.43 1009.71 1010.07 1010.39 1010.71 1011.03 1011.39 1011.67 1011.87 1011.99 1012.15 1012.27 1012.43 1012.59 1012.71 1012.79 1012.71 1012.83 1013.03 1013.23 1013.31 1013.43 1013.47 1013.55 1013.67 1013.79 1013.95 1014.23 1014.43 1014.59 1014.71 1014.83 1014.91 1014.99 1015.03 1015.15 1015.43 1015.63 1015.71 1015.83 1015.87 1015.87 1015.91 1015.87 1015.91
1004.59 1004.83 1005.07 1005.31 1005.55 1005.75 1005.99 1006.15 1006.35 1006.59 1006.83 1007.03 1007.27 1007.43 1007.63 1007.87 1008.03 1008.27 1008.47 1008.71 1008.91 1009.15 1009.31 1009.51 1009.71 1009.95 1010.23 1010.59 1010.95 1011.27 1011.55 1011.75 1011.95 1012.11 1012.27 1012.43 1012.55 1012.63 1012.71 1012.71 1012.71 1012.75 1012.91 1013.11 1013.19 1013.27 1013.35 1013.43 1013.59 1013.79 1014.07 1014.39 1014.59 1014.71 1014.83 1014.91 1014.99 1015.07 1015.23 1015.43 1016.07 1016.39 1016.43 1016.43 1016.47 1016.51 1016.47 1016.43 1016.43
1004.35 1004.63 1004.91 1005.19 1005.47 1005.71 1005.91 1006.15 1006.31 1006.55 1006.71 1006.95 1007.15 1007.39 1007.59 1007.83 1008.07 1008.31 1008.59 1008.83 1009.07 1009.31 1009.55 1009.75 1009.91 1010.07 1010.27 1010.59 1010.99 1011.31 1011.55 1011.75 1011.99 1012.15 1012.31 1012.43 1012.51 1012.59 1012.63 1012.67 1012.71 1012.87 1013.11 1013.27 1013.27 1013.27 1013.31 1013.43 1013.59 1013.87 1014.19 1014.47 1014.67 1014.79 1014.87 1014.99 1015.15 1015.43 1015.87 1016.19 1016.43 1016.63 1016.71 1016.75 1016.87 1016.95 1016.99 1016.99 1016.99
1004.15 1004.47 1004.79 1005.11 1005.35 1005.55 1005.79 1006.03 1006.19 1006.39 1006.59 1006.79 1007.03 1007.27 1007.55 1007.83 1008.11 1008.35 1008.59 1008.83 1009.07 1009.43 1009.71 1009.99 1010.15 1010.27 1010.39 1010.59 1010.95 1011.31 1011.67 1011.95 1012.19 1012.31 1012.35 1012.43 1012.51 1012.59 1012.67 1012.83 1013.03 1013.35 1013.63 1013.71 1013.59 1013.47 1013.43 1013.55 1013.71 1013.99 1014.27 1014.43 1014.63 1014.79 1014.95 1015.15 1015.43 1015.83 1016.15 1016.43 1016.67 1016.87 1016.99 1017.11 1017.23 1017.39 1017.47 1017.55 1017.55
1004.03 1004.39 1004.71 1004.95 1005.19 1005.43 1005.67 1005.87 1006.07 1006.23 1006.43 1006.71 1006.95 1007.23 1007.51 1007.79 1008.07 1008.31 1008.55 1008.71 1008.99 1009.39 1009.71 1009.99 1010.23 1010.43 1010.59 1010.91 1011.31 1011.75 1012.15 1012.47 1012.71 1012.75 1012.83 1012.95 1013.07 1013.11 1013.15 1013.39 1013.71 1013.99 1014.07 1013.99 1013.83 1013.67 1013.59 1013.71 1013.87 1014.11 1014.31 1014.43 1014.59 1014.79 1014.99 1015.31 1015.71 1016.03 1016.31 1016.59 1016.87 1017.07 1017.27 1017.43 1017.55 1017.71 1017.91 1018.03 1018.07
1003.99 1004.31 1004.59 1004.83 1005.07 1005.27 1005.55 1005.75 1005.91 1006.15 1006.39 1006.63 1006.91 1007.23 1007.51 1007.79 1008.15 1008.43 1008.67 1008.83 1009.03 1009.39 1009.71 1009.99 1010.27 1010.63 1011.03 1011.51 1011.99 1012.39 1012.79 1013.07 1013.27 1013.43 1013.55 1013.75 1013.87 1013.87 1013.87 1014.03 1014.31 1014.51 1014.51 1014.43 1014.19 1013.99 1013.87 1013.87 1014.03 1014.27 1014.43 1014.51 1014.63 1014.87 1015.15 1015.55 1015.91 1016.23 1016.51 1016.79 1017.03 1017.27 1017.55 1017.79 1017.91 1018.11 1018.27 1018.43 1018.55
1003.87 1004.27 1004.59 1004.79 1004.99 1005.19 1005.39 1005.59 1005.79 1006.03 1006.39 1006.63 1006.95 1007.27 1007.55 1007.87 1008.27 1008.63 1008.87 1009.03 1009.19 1009.43 1009.79 1010.23 1010.71 1011.15 1011.59 1011.99 1012.35 1012.75 1013.15 1013.55 1013.87 1014.11 1014.27 1014.39 1014.43 1014.43 1014.47 1014.63 1014.83 1014.99 1015.03 1014.99 1014.75 1014.55 1014.39 1014.27 1014.35 1014.43 1014.55 1014.59 1014.71 1014.99 1015.35 1015.71 1016.03 1016.39 1016.71 1017.03 1017.31 1017.55 1017.87 1018.11 1018.27 1018.43 1018.59 1018.79 1018.91
Wind_Speed
14 14 13 13 11 10 9 8 7 7 7 8 8 9 9 9 9 9 8 8 8 8 8 7 7 8 9 11 11 11 11 12 12 12 12 12 11 11 11 11 11 11 11 11 10 10 9 10 9 7 6 6 7 7 7 7 8 9 9 9 9 9 11 12 12 12 13 13 10
16 16 14 12 10 9 8 7 7 7 7 7 7 8 9 9 9 9 9 9 8 8 7 7 8 9 10 11 11 11 11 12 13 13 12 13 12 12 12 11 11 12 12 12 11 10 9 9 9 7 6 6 6 7 7 7 8 9 10 11 9 9 9 11 12 12 13 13 11
15 15 13 12 11 9 8 7 7 8 8 8 7 8 8 8 8 8 8 8 9 8 8 7 8 9 11 11 11 11 11 12 13 13 13 12 13 13 12 11 12 12 12 12 11 10 9 9 8 7 6 6 7 7 8 8 8 9 10 11 9 8 8 9 10 11 11 10 11
14 13 12 12 12 11 10 8 9 9 9 8 8 8 8 7 7 7 8 9 9 9 8 8 8 9 10 11 11 11 11 12 13 13 13 12 13 13 13 12 12 13 12 12 12 11 10 10 8 7 7 7 8 8 8 8 9 9 9 9 9 9 9 8 9 9 8 8 10
14 13 12 11 13 12 10 9 10 10 9 7 7 7 7 7 7 7 8 8 8 8 9 10 9 9 10 11 12 12 12 12 12 12 13 13 13 13 13 13 13 12 12 12 12 11 11 10 8 7 7 8 8 8 8 9 10 9 8 8 8 8 8 8 8 8 8 8 8
13 13 13 12 13 12 10 9 11 10 8 7 8 8 8 7 7 8 8 9 9 10 10 11 10 10 10 11 12 12 12 12 12 12 13 14 13 13 13 13 13 13 12 12 12 12 11 10 8 7 7 7 8 9 10 11 10 10 9 8 8 8 8 9 8 8 8 9 9
14 14 14 13 13 12 10 10 10 9 9 8 9 10 10 9 9 10 10 10 10 10 10 10 10 10 11 12 12 12 12 12 12 13 14 13 13 14 14 14 13 13 13 12 12 11 11 10 8 7 7 7 7 9 11 12 11 10 10 10 9 8 8 10 8 8 9 11 11
14 15 14 14 13 12 12 11 10 10 9 8 10 11 12 12 12 12 12 11 10 10 10 9 11 12 12 12 12 12 13 13 13 13 14 13 14 14 14 14 14 14 14 13 12 12 11 10 8 8 8 7 7 9 11 13 13 13 12 12 10 9 8 8 8 8 9 11 12
14 14 14 14 13 13 13 12 12 11 11 10 11 12 13 13 13 13 12 11 10 10 10 10 12 13 13 13 13 13 13 13 14 14 14 14 14 15 15 14 14 14 13 13 13 13 12 9 8 8 8 8 8 9 11 13 15 15 14 12 11 10 9 9 9 10 10 10 11
13 14 13 13 13 13 13 13 13 13 13 13 13 13 13 13 13 13 12 10 10 11 11 11 12 13 14 14 14 13 13 13 13 14 15 14 15 15 15 14 14 14 13 13 12 13 12 10 10 10 10 10 11 11 12 13 14 15 14 11 11 12 12 11 11 11 11 11 11
14 14 13 12 13 14 14 14 13 13 13 13 14 14 14 13 13 13 12 11 12 12 13 12 13 14 14 14 13 13 13 13 13 13 14 15 15 15 15 15 14 14 14 13 12 12 11 10 11 12 13 12 12 12 12 13 14 15 15 12 13 13 14 13 12 12 11 11 12
14 14 14 13 14 14 14 13 12 12 13 14 14 14 14 14 15 14 14 14 14 14 14 13 14 14 14 13 13 13 13 13 14 14 14 15 15 16 16 15 15 15 14 14 13 11 11 11 12 14 15 15 12 11 12 14 14 15 15 15 15 15 14 14 13 11 10 11 12
14 14 14 14 14 14 14 13 12 12 13 14 14 14 14 14 15 15 16 16 15 14 13 13 14 14 14 13 13 13 13 14 14 14 14 15 15 15 16 15 15 15 15 14 13 12 12 13 14 15 16 16 13 12 12 14 14 15 15 16 16 15 15 14 13 11 11 11 11
14 14 14 14 14 14 14 14 12 12 13 15 14 14 13 14 15 15 15 16 15 14 13 13 13 13 13 14 13 14 14 14 15 15 15 15 15 15 15 15 16 16 15 14 14 14 15 14 15 15 16 16 15 14 14 14 14 15 15 16 16 15 15 13 12 11 10 11 11
15 15 14 14 15 14 13 14 12 12 13 14 14 14 13 13 13 14 14 15 15 14 13 13 12 13 13 14 14 15 15 15 15 16 16 16 16 16 16 15 16 16 15 15 15 15 16 16 16 15 15 16 16 15 15 14 14 14 14 14 15 14 13 11 10 10 10 10 10
15 15 15 15 15 14 14 14 12 12 13 13 14 13 13 12 12 13 14 15 14 14 13 14 13 13 13 14 15 15 15 15 15 16 16 16 16 16 16 16 17 17 16 16 16 16 16 16 15 15 15 15 15 15 15 15 14 14 13 13 13 12 11 11 10 10 10 11 11
16 16 16 16 16 16 15 14 12 12 13 14 14 14 13 12 12 12 13 14 13 13 14 15 14 13 13 13 14 14 14 14 15 15 16 16 17 17 17 17 17 17 17 17 16 16 16 16 15 14 15 15 15 15 15 14 13 12 12 12 11 11 11 11 11 11 11 11 12
17 17 17 17 17 17 17 16 15 14 14 15 15 14 13 13 12 12 13 14 14 14 15 16 15 14 13 14 13 13 13 14 14 15 15 16 17 17 17 17 17 17 16 16 16 16 16 16 15 14 14 14 14 14 14 13 12 11 11 11 11 11 11 11 11 11 11 12 12
17 17 17 18 18 18 18 18 17 16 15 15 15 14 14 14 14 13 13 14 14 15 15 15 15 14 14 15 14 13 13 13 15 16 16 16 16 17 17 17 17 17 16 16 16 16 16 16 15 14 14 13 13 13 13 12 11 11 11 11 11 12 12 12 12 11 11 12 12
17 18 18 18 18 18 18 18 17 17 16 14 15 15 15 15 15 15 14 14 14 15 15 15 15 15 15 15 15 14 13 13 14 15 16 16 16 17 17 17 17 16 16 16 15 15 15 15 14 14 14 13 13 13 13 12 11 10 11 10 11 11 11 11 11 11 12 12 12
18 18 18 18 18 18 18 17 17 17 16 15 15 15 16 15 15 16 15 15 15 15 15 15 16 16 16 16 16 15 14 12 13 14 15 15 16 16 16 16 16 15 15 15 15 15 15 14 14 14 14 14 14 13 12 11 11 11 11 10 10 10 11 11 11 11 12 12 13
18 18 18 18 18 18 17 17 16 16 16 16 16 16 16 16 16 16 15 15 14 15 15 15 16 16 16 16 16 15 14 12 13 14 14 14 14 15 15 14 14 14 14 14 14 14 15 15 15 15 14 13 13 13 12 11 11 12 11 11 10 10 10 10 11 12 13 14 15
17 17 17 17 17 17 17 16 16 16 16 16 16 16 16 16 16 15 15 15 14 15 15 15 15 15 16 16 16 15 14 13 13 14 14 13 14 14 14 13 13 14 14 13 13 14 14 14 14 14 14 12 13 12 12 12 11 11 11 11 10 10 10 11 13 14 14 15 15
17 16 15 14 16 16 16 16 16 16 16 16 16 16 16 16 16 15 15 15 15 15 15 13 13 14 15 15 15 15 15 15 15 14 14 14 14 14 13 13 13 13 12 11 10 10 10 10 11 11 11 10 11 11 11 11 11 10 10 10 10 11 12 14 15 15 15 15 14
17 17 16 14 15 15 15 15 15 16 16 16 16 16 16 16 16 15 15 16 16 16 15 15 14 13 13 13 14 15 15 15 15 15 14 14 14 13 12 11 11 10 9 7 7 8 8 8 8 8 8 8 9 9 9 10 10 10 10 10 12 13 14 15 15 15 15 15 14
17 17 16 16 15 15 15 15 15 16 15 15 15 16 16 16 15 15 15 16 15 15 15 14 13 12 12 12 13 14 14 14 14 14 14 13 13 13 12 11 10 8 7 6 6 8 8 8 8 7 7 8 8 8 8 8 9 10 11 12 13 13 13 14 14 14 14 14 14
17 17 17 16 16 16 16 16 16 16 16 16 16 16 15 15 14 14 15 15 15 14 14 13 12 12 11 11 13 14 14 13 13 13 13 13 13 13 13 11 10 8 7 6 7 8 9 9 9 9 8 8 8 8 8 8 10 11 12 12 13 13 13 13 14 14 13 13 13
17 17 17 17 17 17 17 16 16 16 16 16 16 15 14 14 14 14 14 14 13 13 12 11 11 10 9 9 12 13 14 14 13 12 12 12 12 13 12 11 10 8 6 7 9 10 10 10 11 10 10 9 8 8 9 9 10 10 11 12 12 13 14 14 13 13 12 12 11
18 17 17 18 18 18 17 17 17 17 17 17 16 14 13 13 13 14 14 14 13 12 11 9 8 8 8 9 10 12 13 13 12 12 11 11 11 12 12 12 10 6 6 10 11 11 11 11 12 12 12 11 9 8 8 8 9 10 10 11 12 12 13 13 12 11 11 11 10
18 18 18 18 18 18 18 18 18 17 17 15 15 14 13 13 14 14 15 14 14 12 10 8 8 8 9 10 10 10 11 11 11 11 11 11 11 11 10 9 5 5 8 11 12 13 13 13 14 15 15 15 12 9 9 9 9 10 10 10 11 12 12 12 12 12 11 9 8
18 19 19 19 19 19 19 18 17 16 15 14 14 14 14 14 15 15 15 15 13 12 10 9 10 10 10 10 10 10 10 10 9 8 7 8 8 7 6 5 6 6 8 12 13 14 15 16 17 18 18 18 14 11 10 10 11 10 10 9 10 11 11 11 11 11 10 9 8
19 19 19 19 19 19 18 17 16 16 15 15 15 15 15 15 15 15 15 14 13 12 11 11 11 11 11 10 9 9 8 7 6 6 6 6 7 6 6 6 6 7 9 13 14 16 17 18 19 19 20 20 15 12 12 11 11 10 10 10 10 11 10 9 9 9 9 9 8
18 17 17 17 17 17 16 15 15 14 14 14 14 14 14 15 14 14 13 12 12 12 12 12 12 11 10 8 8 7 7 7 7 7 7 7 7 7 6 6 6 7 9 14 15 16 17 18 19 19 20 20 15 13 12 11 9 8 8 8 8 9 9 8 8 8 7 7 7
17 16 15 15 15 15 14 13 13 13 12 12 12 12 13 13 12 12 11 11 11 11 11 10 9 8 7 8 8 8 8 7 7 7 7 7 7 7 7 7 6 7 10 14 16 17 17 18 19 19 20 20 15 12 10 10 8 7 7 7 6 5 5 5 5 5 5 5 5
16 15 15 14 14 13 12 12 12 11 11 11 11 12 12 11 11 10 10 9 8 8 7 7 8 9 9 10 9 9 8 7 7 7 7 6 7 7 7 8 7 7 10 15 16 17 18 18 19 19 18 16 11 9 8 9 8 7 7 5 2 4 5 6 6 6 6 6 4
16 15 15 14 13 12 11 10 10 11 11 11 11 11 11 10 9 8 8 8 8 9 9 10 11 11 11 10 9 8 7 7 7 6 6 6 7 8 9 9 9 8 8 11 14 16 18 18 18 16 14 10 8 7 7 7 5 4 2 3 8 9 10 11 11 11 11 10 9
15 15 14 13 13 12 11 10 11 11 12 12 11 11 10 10 9 9 10 10 11 11 11 11 11 11 11 10 9 7 6 6 5 6 6 7 8 8 9 9 7 4 2 2 6 11 14 15 14 12 10 8 7 6 6 4 1 4 7 9 9 9 9 9 10 11 12 13 12
14 13 13 13 13 13 12 11 12 12 12 12 12 11 11 11 10 11 11 11 12 12 12 11 10 10 10 9 8 6 5 4 2 1 1 2 2 3 3 2 3 7 10 11 6 5 7 9 8 8 8 7 7 6 4 2 4 7 8 8 8 8 9 8 9 11 13 15 15
13 12 12 13 14 13 13 12 12 12 12 12 12 12 12 12 11 11 11 12 13 13 12 11 10 9 8 8 8 9 11 12 11 10 10 10 10 10 10 10 12 13 13 14 10 5 1 4 6 7 7 6 5 4 3 5 6 7 7 7 7 8 9 9 9 9 12 15 18
12 12 13 13 14 14 14 14 14 12 11 12 13 13 12 12 11 11 11 11 12 12 11 10 10 9 10 11 12 13 14 15 15 15 15 15 15 15 15 15 14 14 15 16 14 10 5 4 6 7 6 4 4 4 5 6 7 7 7 7 7 7 8 8 8 9 10 12 15
13 13 13 13 13 14 15 15 15 13 12 12 13 12 11 11 12 11 11 10 11 10 9 9 11 13 13 12 13 14 15 16 16 15 15 15 15 15 15 15 15 15 16 18 19 17 13 9 7 6 5 3 4 5 6 6 7 7 8 7 7 7 7 8 8 8 9 10 10
Wind_Direction
153 163 174 182 183 181 178 175 172 171 171 173 175 174 171 170 170 172 175 176 178 180 182 181 180 180 181 180 181 184 189 193 194 196 197 199 200 201 201 202 202 201 201 203 201 200 200 203 204 205 207 208 210 210 210 210 210 213 215 217 221 224 227 228 229 227 224 223 221
166 172 178 180 178 176 174 169 168 170 172 173 176 175 173 172 171 173 176 178 180 181 181 181 180 180 181 180 181 184 189 194 197 199 201 202 203 203 202 202 204 204 204 205 203 202 201 202 204 206 207 206 209 211 211 210 210 214 217 219 222 225 227 230 231 230 228 227 224
174 175 176 174 173 172 170 166 167 171 172 169 175 175 173 172 171 173 176 179 180 180 181 182 182 182 182 182 183 185 189 195 199 201 203 204 205 204 204 203 205 206 207 207 205 204 202 201 203 206 209 208 208 210 212 211 211 215 219 221 222 224 227 230 232 231 230 228 226
177 173 172 170 171 170 169 166 169 171 171 165 172 174 173 173 173 174 176 178 180 181 183 184 184 184 184 184 185 187 190 195 200 203 205 206 206 206 206 205 205 206 207 207 207 206 204 202 204 208 212 213 213 214 213 212 211 214 218 221 223 225 227 230 231 230 230 229 227
177 173 172 170 170 170 170 168 170 172 171 163 170 174 176 176 176 176 177 179 182 184 186 188 187 186 185 185 185 188 191 196 200 203 206 207 207 206 206 206 206 206 207 207 207 206 205 203 206 210 214 216 215 216 216 215 214 215 217 220 222 224 227 229 229 230 229 228 226
176 175 174 171 172 173 172 171 170 171 172 169 175 179 181 181 181 181 182 184 185 186 188 191 191 189 187 186 186 188 192 196 200 204 207 208 207 206 206 207 207 207 207 206 206 205 205 206 210 214 216 218 220 221 220 218 217 217 218 220 221 223 225 227 228 228 228 227 225
176 176 176 174 175 176 176 173 171 173 177 179 183 186 187 187 187 187 187 188 187 187 189 192 195 194 190 187 187 189 192 196 200 204 207 209 208 207 207 206 208 209 209 207 206 205 205 207 213 216 217 218 222 221 220 219 219 219 219 220 220 222 224 227 228 228 227 227 224
179 179 179 177 177 179 180 179 176 178 182 187 189 191 192 192 191 191 191 192 190 189 190 193 197 197 196 192 190 190 193 197 200 204 206 209 210 209 209 208 208 210 211 210 208 206 205 207 214 218 219 219 222 221 221 220 220 221 221 221 222 221 221 224 225 225 225 225 223
181 182 181 180 180 181 183 185 183 184 187 192 193 194 194 196 195 194 194 195 194 193 193 194 197 199 200 198 194 194 196 199 201 204 206 208 210 211 211 209 209 209 211 211 210 208 207 207 214 219 221 221 223 222 221 220 221 222 223 224 224 222 220 221 222 223 223 223 222
183 183 183 182 182 184 187 189 189 190 191 194 195 195 195 197 198 197 197 198 197 197 197 196 197 199 201 202 199 198 200 202 204 205 206 208 210 211 212 211 209 209 210 210 211 210 209 210 215 219 222 224 225 225 224 221 222 223 224 225 225 224 223 221 221 221 222 222 221
185 185 185 184 185 186 188 191 193 194 195 197 197 196 196 198 200 200 200 200 200 201 200 198 197 199 201 203 203 203 203 205 207 208 208 209 210 211 212 212 211 210 210 210 210 210 211 212 216 219 222 225 226 226 225 222 223 224 225 226 227 227 226 224 221 220 221 222 221
187 187 188 188 187 188 190 193 196 197 198 200 199 198 198 199 201 202 202 202 203 203 203 201 199 200 202 205 206 207 207 208 210 211 211 211 211 212 212 213 213 213 212 211 210 210 211 214 217 220 222 224 225 225 225 224 223 224 226 227 228 228 228 226 222 221 220 221 221
190 190 190 191 190 191 192 195 198 200 201 202 202 201 200 200 201 202 203 204 205 204 203 201 201 202 204 207 208 209 210 212 212 213 214 214 213 213 213 214 214 214 214 214 212 212 213 216 219 221 223 223 224 224 224 224 224 225 226 227 228 229 229 228 223 221 220 219 218
192 193 193 194 193 194 195 197 200 202 204 204 203 202 201 200 201 202 204 206 206 206 205 203 203 204 207 209 210 211 212 214 215 216 217 217 216 215 215 215 215 215 215 216 215 216 217 218 220 222 223 225 225 225 224 224 225 226 227 228 229 229 229 227 222 218 216 216 215
194 195 196 196 196 197 198 199 202 204 205 205 204 203 202 201 200 202 204 206 207 208 207 206 205 207 209 211 213 213 214 215 217 218 219 219 218 218 217 218 217 217 217 217 217 218 219 221 222 222 224 225 226 226 225 224 225 227 228 229 229 229 227 224 218 213 211 211 213
196 196 197 197 198 199 201 201 203 204 205 206 204 204 203 202 201 201 203 206 207 208 209 210 209 209 210 212 214 215 216 216 218 219 220 221 221 220 220 220 220 219 218 218 218 218 219 221 222 223 224 226 227 227 226 225 225 226 226 228 228 227 225 221 216 211 209 209 213
198 198 198 199 200 202 203 203 204 205 205 206 204 204 204 204 202 201 202 204 207 209 211 212 212 212 211 211 212 214 216 217 218 219 221 223 223 222 222 222 222 221 220 219 220 220 220 219 219 220 222 225 227 228 228 226 224 222 222 223 223 223 222 220 214 210 209 210 214
201 201 201 201 202 203 205 206 207 207 207 207 206 205 205 206 205 204 203 204 208 210 213 214 214 215 214 213 212 213 215 217 218 220 222 224 225 225 225 224 224 223 222 221 221 222 221 220 218 218 219 222 224 227 227 225 221 218 216 215 216 217 217 216 212 209 208 210 214
203 203 204 204 205 206 206 207 209 209 209 209 208 208 207 208 208 207 206 205 208 211 214 215 216 217 217 216 214 213 214 217 220 221 223 224 226 227 227 226 225 224 223 222 222 222 222 221 219 217 216 218 220 223 224 222 216 211 208 208 209 211 211 210 208 207 208 210 214
204 205 206 207 207 208 208 209 210 211 211 211 211 211 210 210 210 210 209 208 208 210 214 217 218 219 219 219 217 215 215 217 221 223 225 226 227 228 228 227 226 225 224 223 222 221 220 221 219 217 215 215 217 218 218 215 209 204 202 203 205 206 206 205 204 206 209 213 218
206 207 208 208 209 209 210 210 212 212 213 214 214 214 214 213 212 212 213 212 210 211 214 217 220 221 221 221 219 217 216 217 220 223 226 228 228 229 229 229 227 225 224 222 221 219 218 218 217 216 214 213 213 213 211 207 202 200 199 201 203 204 205 205 208 212 216 221 226
207 208 209 210 211 211 212 212 213 213 214 215 216 216 216 216 215 214 214 214 213 213 214 217 220 222 223 222 221 220 218 217 219 222 226 228 229 229 229 229 228 226 224 221 219 218 216 216 215 214 213 211 209 206 203 200 198 197 198 200 202 205 209 213 218 223 227 230 233
209 209 210 211 212 213 213 213 214 214 215 217 217 218 218 218 217 216 215 214 215 215 215 216 219 221 223 224 223 222 221 220 220 221 223 225 227 228 228 228 227 226 223 220 218 217 215 214 214 212 210 206 203 200 197 194 193 194 195 198 202 209 217 223 228 231 234 236 238
210 210 210 211 212 213 214 214 214 215 216 217 218 218 219 219 218 217 215 214 215 216 216 216 217 219 222 225 225 225 224 223 222 221 221 222 224 225 225 225 225 224 223 219 215 211 210 210 210 207 204 199 197 195 193 190 190 190 192 196 203 212 221 227 230 233 236 239 241
211 211 211 211 211 212 213 214 215 215 216 217 218 219 219 220 219 218 217 216 216 216 217 217 217 217 219 222 224 225 226 226 225 223 222 220 220 221 222 222 222 222 220 215 205 198 196 197 198 196 194 191 190 189 188 188 189 190 193 199 207 214 221 226 229 232 235 239 240
211 211 211 211 210 211 212 212 213 215 216 217 217 218 219 220 220 219 218 218 217 217 217 218 218 217 217 219 222 224 225 227 227 226 224 220 218 217 217 219 218 217 215 208 192 185 184 182 182 182 181 183 182 183 185 189 191 195 200 207 213 217 222 226 229 231 234 237 240
210 210 210 210 209 210 210 211 211 213 214 215 216 217 218 219 220 220 220 220 219 218 218 219 219 217 217 219 221 222 224 226 226 226 225 222 218 217 217 219 218 215 208 190 176 174 174 173 170 168 169 175 178 182 186 191 196 201 208 215 220 223 226 230 232 234 235 236 238
209 209 209 209 209 209 210 209 210 211 212 213 213 214 216 218 220 221 222 221 220 219 218 218 218 217 217 219 221 222 224 225 225 225 223 221 219 219 219 222 221 213 191 165 165 167 168 166 164 163 165 171 178 185 191 196 200 206 212 219 225 228 230 232 233 234 234 234 234
208 208 208 208 209 209 209 209 209 209 210 210 211 211 211 213 216 219 220 221 220 219 217 216 216 216 217 219 221 222 223 224 224 222 220 218 217 217 220 224 224 202 153 145 156 161 164 164 165 167 169 173 180 189 197 203 207 212 216 221 224 227 229 230 231 231 231 232 232
207 207 208 209 209 210 210 210 210 209 208 208 208 207 206 208 212 215 217 219 219 218 217 215 214 216 218 220 221 221 221 221 221 220 218 215 214 215 216 218 197 144 131 143 152 159 165 169 172 176 178 180 184 190 198 204 210 214 218 222 225 228 230 231 232 232 231 229 230
206 207 208 209 210 211 210 210 210 208 207 205 204 204 204 206 209 212 215 217 218 217 216 214 216 217 218 219 220 220 219 218 212 206 201 199 196 191 178 151 128 129 143 153 159 165 171 177 180 183 185 187 189 194 200 206 210 215 219 223 226 229 232 235 235 234 233 231 231
205 207 208 209 211 211 211 209 208 206 205 204 203 203 204 205 208 211 214 216 217 217 217 217 218 219 219 216 213 210 203 188 170 160 156 155 148 143 138 135 142 153 163 168 169 174 178 183 186 188 190 191 194 200 206 210 214 218 223 226 228 230 231 233 236 237 237 236 235
205 206 207 209 210 211 211 209 206 204 203 201 201 202 204 206 207 209 212 213 215 217 218 219 219 216 208 192 180 168 154 135 132 134 137 138 140 144 152 163 170 173 176 179 180 182 184 188 190 192 194 195 199 205 210 214 216 220 224 226 229 232 234 238 241 241 240 238 236
205 206 207 208 210 210 209 207 203 200 197 196 197 199 201 203 204 205 208 210 211 213 215 214 202 185 164 149 143 137 131 126 131 137 143 148 155 164 176 192 197 188 182 185 188 190 192 194 195 197 199 199 203 208 213 215 219 222 227 231 235 238 241 244 251 258 261 256 245
205 205 206 206 206 205 204 202 198 194 191 189 191 194 197 198 199 200 199 197 193 187 176 157 141 133 130 129 128 128 130 136 145 153 159 165 173 184 195 208 212 201 189 189 195 198 200 201 203 204 203 202 205 211 215 218 224 230 233 231 327 3 8 13 12 9 6 1 349
206 204 203 202 200 198 196 194 192 190 189 188 188 188 189 188 183 174 165 155 148 139 131 124 124 125 126 127 129 133 142 153 162 171 178 185 193 202 210 218 223 219 207 197 202 205 207 210 211 209 205 199 204 211 216 220 227 248 292 57 55 48 42 43 41 38 34 30 29
204 201 197 194 193 192 190 189 190 190 189 186 179 175 170 163 152 143 138 135 133 130 128 127 128 130 133 135 140 148 156 164 176 188 198 203 210 215 221 226 233 255 305 284 228 219 217 216 213 205 195 190 199 206 210 214 158 73 64 62 65 62 58 56 52 48 44 41 41
199 193 187 187 189 190 190 189 190 189 186 178 169 162 154 147 142 141 140 138 138 137 137 137 138 139 140 141 140 133 118 96 88 117 208 221 241 246 249 270 14 19 14 359 332 270 231 218 202 186 177 183 193 196 189 144 91 85 83 81 75 68 63 61 58 55 52 49 49
190 185 184 187 190 191 191 191 191 188 181 171 164 158 152 147 146 147 146 144 143 144 144 145 145 139 127 109 92 76 64 55 48 44 42 40 36 37 41 47 38 29 18 7 1 353 237 185 168 163 164 176 183 176 145 105 95 94 93 89 83 75 69 65 64 61 58 55 55
181 183 186 190 193 195 196 196 195 188 177 167 163 159 153 147 146 146 146 145 144 145 145 142 130 111 92 81 77 70 61 54 49 47 47 48 46 47 49 51 44 34 25 18 18 24 52 114 135 145 152 165 160 136 110 102 101 99 95 91 86 79 73 68 66 64 62 60 59
177 183 189 194 197 199 200 200 195 185 171 163 160 154 148 142 141 143 145 144 142 136 126 110 96 87 82 78 77 72 67 60 53 50 48 48 48 47 47 48 46 40 34 28 29 32 40 60 83 104 119 128 122 110 102 103 102 99 94 89 84 81 76 71 67 64 63 62 62